200 serials | versacheck paper validation code

Date Name Success Rate
2009-10-22 23:48:00 Genuine Windows Validation Code 2 69%
2009-10-22 23:50:36 Windows Validation Code 07.01.2006 0%
2009-10-22 23:48:48 Microsoft Anti Spyware Validation Code 0%
2009-10-22 23:49:34 Quickbooks Premier 2005 (With Validation Code) 71%
2009-10-22 23:50:36 Windows Genuine Advantage Validation Code 0%
2011-09-08 13:11:35 VersaCheck 2.0d upgrade 0%
2011-09-08 13:11:35 VersaCheck v2.0d upgrade 0%
2011-09-08 13:11:35 Versacheck Personal 2000 0%
2011-09-08 13:11:35 Versacheck Platinum 2003 0%
2011-09-08 13:11:35 Versacheck Web Commerce 2001 0%
2009-10-17 06:23:38 G7 Productivity Systems VersaCheck 2008 NFO FIX 55%
2009-10-22 23:47:59 G7.Productivity Systems VersaCheck 2008 19%
2009-10-17 06:22:15 Email Validation For NET V2.0 11%
2009-10-22 23:47:41 Email Validation For NET 2.0 0%
2009-10-22 23:50:33 WA Validation Toolkit 0%
2011-09-08 13:15:57 Web Assist Validation Toolkit 2.0.1 0%
2009-10-22 23:50:36 Windows Genuine Validation Tool 0%
2011-09-08 12:46:36 Seekford .NET Email Validation Wizard 3.0.3 0%
2011-09-08 12:46:36 Seekford .NET Email Validation Wizard v3.0.3 0%
2009-10-17 06:28:36 NET Email Validation Wizard Class Library 0%
2009-10-22 23:48:48 Microsoft Anti-spyware Windows Validation Key 0%
2009-10-22 23:48:59 NET Email Validation Wizard Class Library 0%
2009-10-22 23:48:49 Microsoft Windows Genuine Advantage Validation Tool V. 1.4x 0%
2011-09-08 12:40:41 Real Option Validation for Excel Datecode 20100308 0%
2011-09-08 13:15:57 Web Assist Validation Toolkit (DWMX 2004 Extension) 2.0.1 0%
2011-09-08 13:11:35 Versa Check 2004 VersaCheck 2004 Silver Express 0%
2011-09-08 13:11:35 Versacheck 2005 Silver Silver 0%
2009-10-17 06:29:58 Paper Folding 3D V1.20 71%
2009-10-22 23:47:52 Flash Paper 0%
2009-10-22 23:47:52 Flash Paper 2 0%
2009-10-22 23:49:19 Paper Folding.3D V1.20 92%
2009-10-22 23:49:19 Paper Shredder 1.4 0%
2011-09-08 10:55:14 Flah Paper 2 2 0%
2011-09-08 11:33:39 Morning Paper 1.31 0%
2011-09-08 11:33:39 Morning Paper 1.9 0%
2011-09-08 11:33:39 Morning Paper V1.31 0%
2011-09-08 11:33:39 Morning Paper v1.73 0%
2011-09-08 11:33:39 Morning Paper v1.8 0%
2011-09-08 11:33:39 Morning Paper v1.9 0%
2011-09-08 12:28:05 Paper Cut Quota 5.2.570 0%
2011-09-08 12:28:05 Paper Hanger 2.0 0%
2011-09-08 12:28:05 Paper Hanger v2.0 0%
2011-09-08 12:28:05 Paper Master 2.0 0%
2011-09-08 12:28:05 Paper Master v2.0 0%
2011-09-08 12:28:08 Paper PhotoCube 1.1 0%
2011-09-08 12:28:08 Paper PhotoCube v1.1 0%
2011-09-08 12:28:08 Paper Picker 1.0 0%
2011-09-08 12:28:08 Paper Picker 1.1 0%
2011-09-08 12:28:08 Paper Picker v1.0 0%
2011-09-08 12:28:08 Paper Picker v1.1 0%
2011-09-08 12:28:08 Paper Port v3.0 Win 0%
2011-09-08 12:28:08 Paper Shredder 1.03 0%
2011-09-08 12:28:08 Paper Shredder 1.1 0%
2011-09-08 12:28:08 Paper Shredder 1.4 0%
2011-09-08 12:28:08 Paper Shredder v1 1 0%
2011-09-08 12:28:08 Paper Shredder v1.03 0%
2011-09-08 12:28:08 Paper Shredder v1.4 0%
2011-09-08 12:29:28 PDF Paper Stats v1.01 0%
2009-10-22 23:49:19 Paper Airplane Factory 1.10 0%
2011-09-08 10:02:50 Airplane Factory Paper v1.10 0%
2011-09-08 10:46:36 E-giraffa Paper Ball 1.04 0%
2011-09-08 11:03:26 Graph Paper Print 5.4.0.1 0%
2011-09-08 11:03:26 Graph Paper Print v5.4.0.1 0%
2011-09-08 11:03:26 Graph Paper Printer 4.5.1 0%
2011-09-08 11:03:26 Graph Paper Printer 5.3.1 0%
2011-09-08 11:03:26 Graph Paper Printer 5.3.1.4 0%
2011-09-08 11:03:26 Graph Paper Printer 5.4.0.1 40%
2011-09-08 11:03:26 Graph Paper Printer 5.4.0.2 0%
2011-09-08 11:03:26 Graph Paper Printer v4.5.1 0%
2011-09-08 11:03:26 Graph Paper Printer v5.3.1 0%
2011-09-08 11:03:26 Graph Paper Printer v5.3.1.4 0%
2011-09-08 11:03:26 Graph Paper Printer v5.4.0.1 0%
2011-09-08 11:03:26 Graph Paper Printer v5.4.0.2 0%
2011-09-08 11:32:27 Migliosoft Wall Paper 3.03 20%
2011-09-08 11:32:27 Migliosoft Wall Paper v3.03 0%
2011-09-08 11:33:39 Morning Paper V1.52 Win95NT 0%
2011-09-08 11:33:39 Morning Paper v1.8 Win9xNT 0%
2011-09-08 12:28:05 Paper Airplane Factory 0%
2011-09-08 12:28:05 Paper Airplane Factory 1.01 0%
2011-09-08 12:28:05 Paper Airplane Factory 1.10 0%
2011-09-08 12:28:05 Paper Airplane Factory v1.10 0%
2011-09-08 12:28:05 Paper Hanger v2.0 by ElilA 0%
2011-09-08 12:28:05 Paper Master +v2.0 for Windows 95 0%
2011-09-08 12:28:05 Paper Master +v2.0 Win95 0%
2011-09-08 12:28:05 Paper Master +v20 for Windows 0%
2011-09-08 12:28:05 Paper Master Live 3.02 0%
2011-09-08 12:28:05 Paper Master Live v3.02 0%
2011-09-08 12:28:08 Paper Master v2.0 for Windows95 0%
2011-09-08 12:28:08 Paper Master v2.0 Win95 0%
2011-09-08 12:28:08 Paper Scissors Rock 0%
2011-09-08 12:28:08 Paper-Scissors-Rock 0%
2011-09-08 12:28:08 Paper-Scissors-Rock by TNT 0%
2011-09-08 12:52:41 Text to Paper v1.0 Win95 0%
2011-09-08 12:55:42 Trivista Paper PhotoCube 1.0 0%
2011-09-08 12:55:42 Trivista Paper PhotoCube v1.0 0%
2009-10-22 23:27:13 Add Printer Paper WordPerfect Quick Fix 1.0.0.5. 0%
2011-09-08 09:59:53 Add Printer Paper WordPerfect Quick Fix 1.0.0.5 0%
2011-09-08 09:59:53 Add Printer Paper WordPerfect Quick Fix v1.0.0.5 0%
2011-09-08 11:03:26 Graph Paper Print v5.4.0.1 by DiSTiNCT 0%
2011-09-08 11:03:26 Graph Paper Printer v5.3.1 by Bush Jr 0%
2011-09-08 11:21:51 Kiplinger's Taming the Paper Tiger 1.0 0%
2011-09-08 11:21:51 Kiplinger's Taming the Paper Tiger v1.0 0%
2011-09-08 11:21:51 Kiplingers Taming the Paper Tiger v1.0 0%
2011-09-08 11:21:51 Kiplingers Taming the Paper Tiger v1.2 0%
2011-09-08 12:28:05 Paper direct templ. v5.0 for Corel Win 0%
2011-09-08 12:28:05 Paper direct templ. v5.0 for MSWord v6 0%
2011-09-08 12:28:05 Paper Direct Templates for CorelDraw 5.0 0%
2011-09-08 12:28:05 Paper Direct Templates for CorelDraw v5.0 0%
2011-09-08 12:28:05 Paper Direct Templates for MS Word 5.0 0%
2011-09-08 12:28:05 Paper Direct Templates for MS Word v5.0 0%
2011-09-08 12:28:05 Paper Direct Templates v5.0 for CorelDraw Win 0%
2012-12-12 21:04:06 MurGee Wall Paper Manager v1.0 0%
2009-10-17 06:18:22 Add Printer Paper WordPerfect Quick Fix V1.0.0.5..Regged 24%
2011-09-08 10:24:03 Casino Software Stationery Paper Maker 4.1 0%
2011-09-08 10:24:03 Casino Software Stationery Paper Maker v4.1 0%
2011-09-08 12:28:05 Paper Direct Templates v5.0 for CorelDraw Windows 0%
2011-09-08 12:28:05 Paper Direct Templates v5.0 for MS Word v6.0 for Windows 0%
2011-09-08 12:28:05 Paper Direct Templates v50 for CorelDraw Windows 0%
2011-09-08 12:28:05 Paper Direct Templates v50 for MS Word v60 for Windows 0%
2011-09-08 12:34:19 Plastic Animation Paper Shareware Edition v3.0 0%
2009-10-17 06:19:27 Bar Code Pro V6.02 48%
2009-10-17 06:20:25 Code Co-op V4.5c 39%
2009-10-17 06:20:25 Code VBA V2.0 41%
2009-10-17 06:20:25 CODE-VB V3.03 23%
2009-10-22 23:44:48 Bar Code 128 3.0 0%
2009-10-22 23:44:48 Bar Code 3 Of 9 2.7 0%
2009-10-22 23:44:48 Bar Code 3 Of 9 3.0b 0%
2009-10-22 23:44:48 Bar Code Pro V6.02 0%
2009-10-22 23:44:48 Bar Code Pro V6.11 0%
2009-10-22 23:45:53 Code Co-op 4.0h 27%
2009-10-22 23:45:53 Code Co-op 4.1 44%
2009-10-22 23:45:53 Code Co-op 4.1a 0%
2009-10-22 23:45:53 Code Co-op 4.2 0%
2011-09-08 10:18:52 Bar Code Pro UPC v1.0 mac 54%
2011-09-08 10:18:52 Bar Code 3 of 9 v3.0b 0%
2011-09-08 10:18:52 Bar Code Pro 6.02 0%
2011-09-08 10:18:52 Bar Code 3 of 9 v2.7 0%
2011-09-08 10:18:52 Bar Code 3 of 9 3.0b 0%
2011-09-08 10:18:48 Bar Code 128 v3.0 0%
2011-09-08 10:18:48 Bar Code 3 of 9 2.7 55%
2011-09-08 10:18:48 Bar Code 128 3.0 0%
2011-09-08 10:27:32 Code 55%
2011-09-08 10:27:32 Code co-op 3.1 0%
2011-09-08 10:27:32 Code Co-Op 3.3b 0%
2011-09-08 10:27:32 Code Co-op 4.0h 0%
2011-09-08 10:27:32 Code Co-op 4.1 60%
2011-09-08 10:27:32 Code Co-op 4.1a 0%
2011-09-08 10:27:32 Code Co-op 4.2 57%
2011-09-08 10:27:32 Code Co-op 4.5c 55%
2011-09-08 10:27:32 Code co-op v3.1 0%
2011-09-08 10:27:32 Code Co-Op v3.3b 61%
2011-09-08 10:27:32 Code Co-op v4.1 0%
2011-09-08 10:27:32 Code Co-op v4.2 0%
2011-09-08 10:27:32 Code Co-op v4.5c 40%
2011-09-08 10:27:36 Code VBA 2.0 0%
2011-09-08 10:27:36 Code Wiz 3.0 0%
2011-09-08 10:27:36 Code Wiz v3.0 0%
2011-09-08 10:27:36 CODE-VB 3.03 57%
2011-09-08 10:27:36 Code:law 0%
2011-09-08 10:46:43 EAN Bar Code 0%
2011-09-08 10:49:57 ESS Code 0%
2011-09-08 10:49:57 ESS Code v6.7 Win 0%
2011-09-08 10:49:57 ESS Code v7.7 and v7.8 53%
2011-09-08 10:49:57 ESS-Code 0%
2011-09-08 10:49:57 ESS-Code 7.x 0%
2011-09-08 10:49:57 ESS-Code v7.5 59%
2011-09-08 10:49:57 ESS-Code v7.x 0%
2011-09-08 10:49:57 ESS-CODE v7.x WIN 0%
2011-09-08 10:49:57 ESS-Code/32 v7.8 0%
2011-09-08 10:55:14 Fix It v1.0 Code 100%
2011-09-08 10:55:14 Fix-It v2.30 Reg Code 56%
2011-09-08 11:01:54 G-Code-It 3.0 0%
2011-09-08 11:01:54 G-Code-It v3.0 0%
2011-09-08 11:07:16 Hit-N-Run v1.4 Code 0%
2011-09-08 13:23:47 ZIP 95 v1.02 REG CODE 0%
2009-10-17 06:19:27 Bar Code Pro V6.11 MacOSX-ART 12%
2009-10-17 06:20:25 Code Visualizer V2.25 57%
2009-10-17 06:20:25 Code Visualizer V2.28 41%
2009-10-17 06:20:25 Code Visualizer V2.35 5%
2009-10-17 06:20:25 Code Visualizer V2.35 11%
2009-10-17 06:20:25 Code Visualizer V2.52 54%
2009-10-17 06:20:25 Code Visualizer V2.64 52%
2009-10-17 06:20:25 Code Visualizer V2.83 22%
2009-10-17 06:20:25 Code Visualizer V2.87 19%
2009-10-17 06:20:25 Code Visualizer V2.97 71%
2009-10-17 06:20:25 Code Visualizer V2.99 26%
2009-10-17 06:20:25 Code Visualizer V3.01 49%
2009-10-17 06:20:25 Code Visualizer V3.05 27%
2009-10-17 06:20:25 Code Visualizer V3.1 35%
2009-10-17 06:20:25 Code Visualizer V3.38 44%
2009-10-22 23:44:48 Bar Code Pro FileMaster V2.1 0%
2009-10-22 23:45:49 Camfrog Pro Code 74%
2009-10-22 23:45:53 Code Pro Evolution 6 62%
2009-10-22 23:45:53 Code Source 34%
2009-10-22 23:45:53 Code Vault 2.2 13%
2009-10-22 23:45:53 Code Visualizer V2.25 41%
2009-10-22 23:45:53 Code Visualizer V2.35 0%
2009-10-22 23:45:53 Code Visualizer V2.49 0%
2009-10-22 23:45:53 Code Visualizer V2.52 0%
2009-10-22 23:45:53 Code Visualizer V2.55 0%